﻿測定場所 (Monitoring sites),日付 (Measurement date),時間 (Measurement time),線量率 最大値 (max) μGy/h,線量率 最小値 (min) μGy/h,線量率 平均値 (average) μGy/h,
大田 (Ota),2021-05-30,23:01～24:00,0.0355,0.0317,0.0332,
大田 (Ota),2021-05-30,22:01～23:00,0.0359,0.0310,0.0333,
大田 (Ota),2021-05-30,21:01～22:00,0.0360,0.0316,0.0336,
大田 (Ota),2021-05-30,20:01～21:00,0.0357,0.0317,0.0336,
大田 (Ota),2021-05-30,19:01～20:00,0.0354,0.0308,0.0331,
大田 (Ota),2021-05-30,18:01～19:00,0.0358,0.0316,0.0334,
大田 (Ota),2021-05-30,17:01～18:00,0.0357,0.0314,0.0336,
大田 (Ota),2021-05-30,16:01～17:00,0.0348,0.0311,0.0333,
大田 (Ota),2021-05-30,15:01～16:00,0.0354,0.0309,0.0331,
大田 (Ota),2021-05-30,14:01～15:00,0.0353,0.0312,0.0332,
大田 (Ota),2021-05-30,13:01～14:00,0.0353,0.0307,0.0331,
大田 (Ota),2021-05-30,12:01～13:00,0.0363,0.0310,0.0334,
大田 (Ota),2021-05-30,11:01～12:00,0.0349,0.0317,0.0332,
大田 (Ota),2021-05-30,10:01～11:00,0.0353,0.0317,0.0336,
大田 (Ota),2021-05-30,09:01～10:00,0.0352,0.0311,0.0334,
大田 (Ota),2021-05-30,08:01～09:00,0.0358,0.0313,0.0331,
大田 (Ota),2021-05-30,07:01～08:00,0.0355,0.0314,0.0334,
大田 (Ota),2021-05-30,06:01～07:00,0.0359,0.0312,0.0333,
大田 (Ota),2021-05-30,05:01～06:00,0.0365,0.0310,0.0331,
大田 (Ota),2021-05-30,04:01～05:00,0.0355,0.0308,0.0329,
大田 (Ota),2021-05-30,03:01～04:00,0.0350,0.0313,0.0330,
大田 (Ota),2021-05-30,02:01～03:00,0.0349,0.0315,0.0330,
大田 (Ota),2021-05-30,01:01～02:00,0.0357,0.0318,0.0334,
大田 (Ota),2021-05-30,00:01～01:00,0.0367,0.0314,0.0333,
大田 (Ota),2021-05-29,23:01～24:00,0.0347,0.0319,0.0332,
大田 (Ota),2021-05-29,22:01～23:00,0.0348,0.0310,0.0329,
大田 (Ota),2021-05-29,21:01～22:00,0.0353,0.0314,0.0333,
大田 (Ota),2021-05-29,20:01～21:00,0.0350,0.0313,0.0330,
大田 (Ota),2021-05-29,19:01～20:00,0.0350,0.0312,0.0331,
大田 (Ota),2021-05-29,18:01～19:00,0.0348,0.0308,0.0331,
大田 (Ota),2021-05-29,17:01～18:00,0.0353,0.0307,0.0329,
大田 (Ota),2021-05-29,16:01～17:00,0.0355,0.0311,0.0332,
大田 (Ota),2021-05-29,15:01～16:00,0.0358,0.0306,0.0329,
大田 (Ota),2021-05-29,14:01～15:00,0.0348,0.0306,0.0330,
大田 (Ota),2021-05-29,13:01～14:00,0.0344,0.0308,0.0328,
大田 (Ota),2021-05-29,12:01～13:00,0.0349,0.0303,0.0328,
大田 (Ota),2021-05-29,11:01～12:00,0.0349,0.0311,0.0328,
大田 (Ota),2021-05-29,10:01～11:00,0.0351,0.0310,0.0329,
大田 (Ota),2021-05-29,09:01～10:00,0.0353,0.0312,0.0328,
大田 (Ota),2021-05-29,08:01～09:00,0.0343,0.0301,0.0326,
大田 (Ota),2021-05-29,07:01～08:00,0.0350,0.0310,0.0326,
大田 (Ota),2021-05-29,06:01～07:00,0.0347,0.0311,0.0328,
大田 (Ota),2021-05-29,05:01～06:00,0.0352,0.0312,0.0328,
大田 (Ota),2021-05-29,04:01～05:00,0.0351,0.0301,0.0326,
大田 (Ota),2021-05-29,03:01～04:00,0.0359,0.0308,0.0328,
大田 (Ota),2021-05-29,02:01～03:00,0.0349,0.0309,0.0327,
大田 (Ota),2021-05-29,01:01～02:00,0.0350,0.0307,0.0327,
大田 (Ota),2021-05-29,00:01～01:00,0.0355,0.0306,0.0331,
大田 (Ota),2021-05-28,23:01～24:00,0.0356,0.0313,0.0328,
大田 (Ota),2021-05-28,22:01～23:00,0.0345,0.0299,0.0327,
大田 (Ota),2021-05-28,21:01～22:00,0.0342,0.0309,0.0328,
大田 (Ota),2021-05-28,20:01～21:00,0.0349,0.0311,0.0329,
大田 (Ota),2021-05-28,19:01～20:00,0.0344,0.0309,0.0327,
大田 (Ota),2021-05-28,18:01～19:00,0.0350,0.0309,0.0329,
大田 (Ota),2021-05-28,17:01～18:00,0.0359,0.0309,0.0330,
大田 (Ota),2021-05-28,16:01～17:00,0.0351,0.0307,0.0330,
大田 (Ota),2021-05-28,15:01～16:00,0.0346,0.0313,0.0330,
大田 (Ota),2021-05-28,14:01～15:00,0.0351,0.0300,0.0331,
大田 (Ota),2021-05-28,13:01～14:00,0.0347,0.0312,0.0328,
大田 (Ota),2021-05-28,12:01～13:00,0.0360,0.0308,0.0330,
大田 (Ota),2021-05-28,11:01～12:00,0.0354,0.0305,0.0328,
大田 (Ota),2021-05-28,10:01～11:00,0.0348,0.0308,0.0329,
大田 (Ota),2021-05-28,09:01～10:00,0.0353,0.0306,0.0326,
大田 (Ota),2021-05-28,08:01～09:00,0.0342,0.0302,0.0327,
大田 (Ota),2021-05-28,07:01～08:00,0.0351,0.0311,0.0330,
大田 (Ota),2021-05-28,06:01～07:00,0.0363,0.0308,0.0328,
大田 (Ota),2021-05-28,05:01～06:00,0.0342,0.0302,0.0323,
大田 (Ota),2021-05-28,04:01～05:00,0.0346,0.0298,0.0322,
大田 (Ota),2021-05-28,03:01～04:00,0.0348,0.0306,0.0325,
大田 (Ota),2021-05-28,02:01～03:00,0.0346,0.0307,0.0323,
大田 (Ota),2021-05-28,01:01～02:00,0.0348,0.0306,0.0320,
大田 (Ota),2021-05-28,00:01～01:00,0.0342,0.0294,0.0323,
大田 (Ota),2021-05-27,23:01～24:00,0.0348,0.0299,0.0326,
大田 (Ota),2021-05-27,22:01～23:00,0.0341,0.0300,0.0323,
大田 (Ota),2021-05-27,21:01～22:00,0.0348,0.0305,0.0326,
大田 (Ota),2021-05-27,20:01～21:00,0.0345,0.0313,0.0328,
大田 (Ota),2021-05-27,19:01～20:00,0.0361,0.0322,0.0337,
大田 (Ota),2021-05-27,18:01～19:00,0.0397,0.0324,0.0358,
大田 (Ota),2021-05-27,17:01～18:00,0.0483,0.0363,0.0426,
大田 (Ota),2021-05-27,16:01～17:00,0.0575,0.0466,0.0520,
大田 (Ota),2021-05-27,15:01～16:00,0.0557,0.0438,0.0505,
大田 (Ota),2021-05-27,14:01～15:00,0.0483,0.0410,0.0446,
大田 (Ota),2021-05-27,13:01～14:00,0.0469,0.0388,0.0431,
大田 (Ota),2021-05-27,12:01～13:00,0.0450,0.0376,0.0415,
大田 (Ota),2021-05-27,11:01～12:00,0.0447,0.0386,0.0416,
大田 (Ota),2021-05-27,10:01～11:00,0.0478,0.0393,0.0431,
大田 (Ota),2021-05-27,09:01～10:00,0.0466,0.0398,0.0431,
大田 (Ota),2021-05-27,08:01～09:00,0.0495,0.0424,0.0456,
大田 (Ota),2021-05-27,07:01～08:00,0.0510,0.0392,0.0447,
大田 (Ota),2021-05-27,06:01～07:00,0.0454,0.0384,0.0420,
大田 (Ota),2021-05-27,05:01～06:00,0.0435,0.0341,0.0389,
大田 (Ota),2021-05-27,04:01～05:00,0.0372,0.0324,0.0343,
大田 (Ota),2021-05-27,03:01～04:00,0.0356,0.0318,0.0336,
大田 (Ota),2021-05-27,02:01～03:00,0.0353,0.0305,0.0332,
大田 (Ota),2021-05-27,01:01～02:00,0.0359,0.0311,0.0335,
大田 (Ota),2021-05-27,00:01～01:00,0.0360,0.0308,0.0336,
大田 (Ota),2021-05-26,23:01～24:00,0.0355,0.0319,0.0337,
大田 (Ota),2021-05-26,22:01～23:00,0.0356,0.0313,0.0334,
大田 (Ota),2021-05-26,21:01～22:00,0.0355,0.0313,0.0335,
大田 (Ota),2021-05-26,20:01～21:00,0.0361,0.0308,0.0335,
大田 (Ota),2021-05-26,19:01～20:00,0.0355,0.0318,0.0334,
大田 (Ota),2021-05-26,18:01～19:00,0.0356,0.0315,0.0334,
大田 (Ota),2021-05-26,17:01～18:00,0.0354,0.0320,0.0336,
大田 (Ota),2021-05-26,16:01～17:00,0.0358,0.0312,0.0336,
大田 (Ota),2021-05-26,15:01～16:00,0.0359,0.0317,0.0334,
大田 (Ota),2021-05-26,14:01～15:00,0.0360,0.0316,0.0337,
大田 (Ota),2021-05-26,13:01～14:00,0.0361,0.0317,0.0332,
大田 (Ota),2021-05-26,12:01～13:00,0.0350,0.0321,0.0335,
大田 (Ota),2021-05-26,11:01～12:00,0.0353,0.0312,0.0336,
大田 (Ota),2021-05-26,10:01～11:00,0.0361,0.0307,0.0334,
大田 (Ota),2021-05-26,09:01～10:00,0.0357,0.0315,0.0335,
大田 (Ota),2021-05-26,08:01～09:00,0.0360,0.0319,0.0335,
大田 (Ota),2021-05-26,07:01～08:00,0.0365,0.0313,0.0336,
大田 (Ota),2021-05-26,06:01～07:00,0.0361,0.0308,0.0336,
大田 (Ota),2021-05-26,05:01～06:00,0.0359,0.0312,0.0335,
大田 (Ota),2021-05-26,04:01～05:00,0.0364,0.0311,0.0337,
大田 (Ota),2021-05-26,03:01～04:00,0.0351,0.0316,0.0336,
大田 (Ota),2021-05-26,02:01～03:00,0.0355,0.0314,0.0336,
大田 (Ota),2021-05-26,01:01～02:00,0.0365,0.0317,0.0339,
大田 (Ota),2021-05-26,00:01～01:00,0.0354,0.0317,0.0337,
大田 (Ota),2021-05-25,23:01～24:00,0.0357,0.0317,0.0337,
大田 (Ota),2021-05-25,22:01～23:00,0.0366,0.0315,0.0339,
大田 (Ota),2021-05-25,21:01～22:00,0.0360,0.0317,0.0336,
大田 (Ota),2021-05-25,20:01～21:00,0.0359,0.0316,0.0336,
大田 (Ota),2021-05-25,19:01～20:00,0.0352,0.0318,0.0336,
大田 (Ota),2021-05-25,18:01～19:00,0.0358,0.0311,0.0336,
大田 (Ota),2021-05-25,17:01～18:00,0.0363,0.0316,0.0337,
大田 (Ota),2021-05-25,16:01～17:00,0.0353,0.0318,0.0335,
大田 (Ota),2021-05-25,15:01～16:00,0.0357,0.0306,0.0336,
大田 (Ota),2021-05-25,14:01～15:00,0.0353,0.0311,0.0335,
大田 (Ota),2021-05-25,13:01～14:00,0.0362,0.0312,0.0331,
大田 (Ota),2021-05-25,12:01～13:00,0.0356,0.0315,0.0337,
大田 (Ota),2021-05-25,11:01～12:00,0.0355,0.0309,0.0331,
大田 (Ota),2021-05-25,10:01～11:00,0.0350,0.0304,0.0326,
大田 (Ota),2021-05-25,09:01～10:00,0.0348,0.0313,0.0326,
大田 (Ota),2021-05-25,08:01～09:00,0.0349,0.0308,0.0327,
大田 (Ota),2021-05-25,07:01～08:00,0.0351,0.0318,0.0332,
大田 (Ota),2021-05-25,06:01～07:00,0.0349,0.0309,0.0330,
大田 (Ota),2021-05-25,05:01～06:00,0.0352,0.0301,0.0332,
大田 (Ota),2021-05-25,04:01～05:00,0.0350,0.0309,0.0328,
大田 (Ota),2021-05-25,03:01～04:00,0.0358,0.0299,0.0327,
大田 (Ota),2021-05-25,02:01～03:00,0.0358,0.0308,0.0329,
大田 (Ota),2021-05-25,01:01～02:00,0.0347,0.0304,0.0328,
大田 (Ota),2021-05-25,00:01～01:00,0.0342,0.0308,0.0327,
大田 (Ota),2021-05-24,23:01～24:00,0.0354,0.0303,0.0329,
大田 (Ota),2021-05-24,22:01～23:00,0.0356,0.0315,0.0333,
大田 (Ota),2021-05-24,21:01～22:00,0.0355,0.0311,0.0334,
大田 (Ota),2021-05-24,20:01～21:00,0.0362,0.0320,0.0340,
大田 (Ota),2021-05-24,19:01～20:00,0.0370,0.0325,0.0350,
大田 (Ota),2021-05-24,18:01～19:00,0.0363,0.0326,0.0346,
大田 (Ota),2021-05-24,17:01～18:00,0.0365,0.0306,0.0340,
大田 (Ota),2021-05-24,16:01～17:00,0.0355,0.0308,0.0332,
大田 (Ota),2021-05-24,15:01～16:00,0.0349,0.0292,0.0325,
大田 (Ota),2021-05-24,14:01～15:00,0.0347,0.0305,0.0332,
大田 (Ota),2021-05-24,13:01～14:00,0.0362,0.0313,0.0332,
大田 (Ota),2021-05-24,12:01～13:00,0.0354,0.0311,0.0331,
大田 (Ota),2021-05-24,11:01～12:00,0.0352,0.0306,0.0331,
大田 (Ota),2021-05-24,10:01～11:00,0.0349,0.0306,0.0328,
大田 (Ota),2021-05-24,09:01～10:00,0.0353,0.0318,0.0333,
大田 (Ota),2021-05-24,08:01～09:00,0.0352,0.0313,0.0329,
大田 (Ota),2021-05-24,07:01～08:00,0.0354,0.0307,0.0331,
大田 (Ota),2021-05-24,06:01～07:00,0.0354,0.0308,0.0332,
大田 (Ota),2021-05-24,05:01～06:00,0.0348,0.0306,0.0330,
大田 (Ota),2021-05-24,04:01～05:00,0.0351,0.0315,0.0330,
大田 (Ota),2021-05-24,03:01～04:00,0.0349,0.0308,0.0330,
大田 (Ota),2021-05-24,02:01～03:00,0.0349,0.0306,0.0331,
大田 (Ota),2021-05-24,01:01～02:00,0.0345,0.0302,0.0327,
大田 (Ota),2021-05-24,00:01～01:00,0.0355,0.0314,0.0328,
